Flag for Australia Weather past 2 weeks in Shepparton, Victoria, Australia

Now
59 °F

Cool.


Feels Like: 57 °F
Forecast: 56 / 94 °F
Wind: 9 mph from Southwest

Location: Mangalore Airport

Current Time: Dec 21, 2014 at 2:16:49 AM

Latest Report: Dec 21, 2014 at 1:00 AM


Visibility: N/A

Pressure: 29.98 "Hg

Humidity: 79%

Dew point: 53 °F

Location of SheppartonLocation

Historic Weather in Shepparton — Graph

°F

Shepparton temperature yesterday

Maximum temperature yesterday: 83 °F (at 4:00 PM)
Minimum temperature yesterday: 47 °F (at 6:00 AM)
Average temperature yesterday: 66 °F

Past Weeks' High & Low Weather Summary

 TemperatureHumidityPressure
High93 °F (Dec 15, 4:00 PM)91% (Dec 6, 3:00 AM)30.12 "Hg (Dec 6, 3:00 AM)
Low45 °F (Dec 18, 6:00 AM)9% (Dec 16, 1:00 PM)29.35 "Hg (Dec 16, 3:00 PM)
Average67 °F54%29.81 "Hg
* Reported Dec 6 1:00 AM — Dec 21 1:00 AM, Shepparton, Weather by CustomWeather, © 2014

Note: Actual official high and low records may vary slightly from our data, if they occured in-between our weather recording intervals... More about our weather records

Advertising

Shepparton weather history for previous 24 hours

 ConditionsComfort  
Time TempWeatherWind HumidityBarometerVisibility
1:00 AM
Dec 21
59 °FCool.9 mph79%29.98 "HgN/A
12:00 AM61 °FCool.10 mph73%29.99 "HgN/A
10:00 PM
Dec 20
69 °FMild.9 mph44%30.00 "HgN/A
9:00 PM72 °FMild.13 mph41%29.98 "HgN/A
7:00 PM80 °FPleasantly warm.13 mph29%29.94 "HgN/A
6:00 PM82 °FPleasantly warm.8 mph29%29.93 "HgN/A
4:00 PM83 °FPleasantly warm.10 mph29%29.96 "HgN/A
3:00 PM81 °FPleasantly warm.13 mph29%29.99 "HgN/A
1:00 PM76 °FMild.13 mph33%30.04 "HgN/A
12:00 PM73 °FMild.9 mph37%30.06 "HgN/A
10:00 AM65 °FMild.10 mph46%30.08 "HgN/A
9:00 AM61 °FRefreshingly cool.13 mph54%30.07 "HgN/A
7:00 AM50 °FCool.5 mph80%30.06 "HgN/A
6:00 AM47 °FCool.6 mph83%30.05 "HgN/A
4:00 AM50 °FCool.6 mph76%30.04 "HgN/A
3:00 AM52 °FCool.9 mph68%30.05 "HgN/A
Weather by CustomWeather, © 2014

See weather overviewHow to use our weather pages